| time (UTC) | temp F | wind direction | speed MPH | gust MPH | rain 1hr in | rain 24hr in | rain mn in | humidity % | barometer mb |
| 20260507040044 | 57 | 38 | 1.0 | 3.0 | 0.00 | 0.00 | 0.00 | 76 | 1021.3 |
| 20260507034546 | 58 | 0 | 0.0 | 2.0 | 0.00 | 0.00 | 0.00 | 74 | 1021.2 |
| 20260507033044 | 59 | 0 | 0.0 | 4.0 | 0.00 | 0.00 | 0.00 | 73 | 1021.0 |
| 20260507031546 | 60 | 0 | 0.0 | 3.0 | 0.00 | 0.00 | 0.00 | 71 | 1020.8 |
| 20260507030044 | 61 | 0 | 0.0 | 3.0 | 0.00 | 0.00 | 0.00 | 70 | 1020.6 |
| 20260507024548 | 62 | 46 | 0.0 | 5.0 | 0.00 | 0.00 | 0.00 | 69 | 1020.6 |
| 20260507023041 | 64 | 333 | 1.0 | 5.0 | 0.00 | 0.00 | 0.00 | 67 | 1020.4 |
| 20260507021543 | 65 | 26 | 2.0 | 4.0 | 0.00 | 0.00 | 0.00 | 66 | 1020.3 |
| 20260507020051 | 66 | 0 | 1.0 | 4.0 | 0.00 | 0.00 | 0.00 | 65 | 1020.3 |
| 20260507014551 | 67 | 10 | 0.0 | 3.0 | 0.00 | 0.00 | 0.00 | 65 | 1020.3 |
| 20260507013051 | 68 | 46 | 1.0 | 5.0 | 0.00 | 0.00 | 0.00 | 63 | 1020.2 |
| 20260507011544 | 68 | 0 | 1.0 | 6.0 | 0.00 | 0.00 | 0.00 | 62 | 1020.1 |
| 20260507010054 | 69 | 28 | 1.0 | 4.0 | 0.00 | 0.00 | 0.00 | 61 | 1020.2 |
| 20260507004546 | 70 | 0 | 1.0 | 7.0 | 0.00 | 0.00 | 0.00 | 61 | 1020.0 |
| 20260507003043 | 70 | 15 | 2.0 | 6.0 | 0.00 | 0.00 | 0.00 | 61 | 1020.0 |
| 20260507001547 | 70 | 29 | 2.0 | 6.0 | 0.00 | 0.00 | 0.00 | 61 | 1020.0 |
| 20260507000051 | 71 | 21 | 1.0 | 6.0 | 0.00 | 0.00 | 0.00 | 60 | 1020.0 |
| 20260506234545 | 71 | 19 | 2.0 | 6.0 | 0.00 | 0.00 | 0.00 | 60 | 1020.0 |
| 20260506233101 | 71 | 238 | 2.0 | 7.0 | 0.00 | 0.00 | 0.00 | 60 | 1019.8 |
| 20260506231550 | 71 | 75 | 1.0 | 8.0 | 0.00 | 0.00 | 0.00 | 59 | 1019.9 |
| 20260506230048 | 71 | 355 | 0.0 | 5.0 | 0.00 | 0.00 | 0.00 | 58 | 1020.0 |
| 20260506224542 | 71 | 13 | 0.0 | 4.0 | 0.00 | 0.00 | 0.00 | 60 | 1020.2 |
| 20260506223044 | 71 | 0 | 1.0 | 6.0 | 0.00 | 0.00 | 0.00 | 60 | 1020.3 |
| 20260506221556 | 70 | 14 | 3.0 | 10.0 | 0.00 | 0.00 | 0.00 | 60 | 1020.4 |
| 20260506220049 | 70 | 107 | 2.0 | 5.0 | 0.00 | 0.00 | 0.00 | 62 | 1020.5 |
| 20260506214546 | 70 | 98 | 1.0 | 5.0 | 0.00 | 0.00 | 0.00 | 62 | 1020.8 |
| 20260506213050 | 69 | 302 | 1.0 | 6.0 | 0.00 | 0.00 | 0.00 | 66 | 1020.9 |
| 20260506211544 | 69 | 163 | 2.0 | 5.0 | 0.00 | 0.00 | 0.00 | 69 | 1021.0 |
| 20260506210044 | 67 | 35 | 1.0 | 5.0 | 0.00 | 0.00 | 0.00 | 70 | 1021.0 |
| 20260506204546 | 66 | 0 | 2.0 | 8.0 | 0.00 | 0.00 | 0.00 | 70 | 1021.1 |
| 20260506203045 | 66 | 32 | 1.0 | 6.0 | 0.00 | 0.00 | 0.00 | 71 | 1021.3 |
| 20260506201553 | 65 | 22 | 2.0 | 8.0 | 0.00 | 0.00 | 0.00 | 72 | 1021.3 |
| 20260506200051 | 65 | 10 | 2.0 | 6.0 | 0.00 | 0.00 | 0.00 | 73 | 1021.4 |
| 20260506194553 | 64 | 61 | 1.0 | 4.0 | 0.00 | 0.00 | 0.00 | 73 | 1021.4 |
| 20260506193046 | 63 | 355 | 1.0 | 5.0 | 0.00 | 0.00 | 0.00 | 76 | 1021.6 |
| 20260506191550 | 63 | 0 | 1.0 | 3.0 | 0.00 | 0.00 | 0.00 | 76 | 1021.6 |
| 20260506190046 | 61 | 13 | 0.0 | 6.0 | 0.00 | 0.00 | 0.00 | 78 | 1021.6 |
| 20260506184544 | 61 | 10 | 0.0 | 4.0 | 0.00 | 0.00 | 0.00 | 77 | 1021.8 |
| 20260506183050 | 61 | 0 | 0.0 | 3.0 | 0.00 | 0.00 | 0.00 | 78 | 1021.6 |
| 20260506181542 | 60 | 350 | 0.0 | 3.0 | 0.00 | 0.00 | 0.00 | 80 | 1021.6 |
| 20260506180045 | 59 | 57 | 1.0 | 3.0 | 0.00 | 0.00 | 0.00 | 80 | 1021.7 |
| 20260506174541 | 59 | 92 | 0.0 | 3.0 | 0.00 | 0.00 | 0.00 | 82 | 1021.5 |
| 20260506173056 | 59 | 0 | 0.0 | 4.0 | 0.00 | 0.00 | 0.00 | 83 | 1021.6 |
| 20260506171549 | 58 | 0 | 0.0 | 3.0 | 0.00 | 0.00 | 0.00 | 83 | 1021.6 |
| 20260506170044 | 56 | 255 | 0.0 | 2.0 | 0.00 | 0.00 | 0.00 | 85 | 1021.5 |
| 20260506164605 | 56 | 0 | 0.0 | 0.0 | 0.00 | 0.00 | 0.00 | 86 | 1021.7 |
| 20260506163047 | 55 | 0 | 0.0 | 3.0 | 0.00 | 0.00 | 0.00 | 87 | 1021.8 |
| 20260506161546 | 55 | 355 | 1.0 | 3.0 | 0.00 | 0.00 | 0.00 | 87 | 1021.8 |
| 20260506160050 | 55 | 32 | 0.0 | 4.0 | 0.00 | 0.00 | 0.00 | 87 | 1021.9 |
| 20260506154553 | 55 | 0 | 1.0 | 3.0 | 0.00 | 0.00 | 0.00 | 86 | 1021.8 |
| 20260506153042 | 55 | 0 | 0.0 | 0.0 | 0.00 | 0.00 | 0.00 | 87 | 1021.5 |
| 20260506151549 | 54 | 0 | 0.0 | 0.0 | 0.00 | 0.00 | 0.00 | 88 | 1021.4 |
| 20260506150051 | 54 | 0 | 0.0 | 1.0 | 0.00 | 0.00 | 0.00 | 88 | 1021.5 |
| 20260506144549 | 54 | 0 | 0.0 | 2.0 | 0.00 | 0.00 | 0.00 | 90 | 1021.3 |
| 20260506143052 | 53 | 0 | 0.0 | 0.0 | 0.00 | 0.00 | 0.00 | 91 | 1021.1 |
| 20260506141602 | 53 | 0 | 0.0 | 0.0 | 0.00 | 0.00 | 0.00 | 91 | 1021.3 |
| 20260506140048 | 52 | 0 | 0.0 | 1.0 | 0.00 | 0.00 | 0.00 | 91 | 1021.3 |
| 20260506134545 | 52 | 0 | 0.0 | 2.0 | 0.00 | 0.00 | 0.00 | 92 | 1021.0 |
| 20260506133046 | 51 | 0 | 0.0 | 1.0 | 0.00 | 0.00 | 0.00 | 93 | 1020.8 |
| 20260506131544 | 51 | 0 | 0.0 | 0.0 | 0.00 | 0.00 | 0.00 | 94 | 1020.8 |
| 20260506130042 | 51 | 0 | 0.0 | 0.0 | 0.00 | 0.00 | 0.00 | 94 | 1020.7 |
| 20260506124542 | 51 | 0 | 0.0 | 0.0 | 0.00 | 0.00 | 0.00 | 95 | 1020.5 |
| 20260506111542 | 48 | 0 | 0.0 | 0.0 | 0.00 | 0.00 | 0.00 | 94 | 1019.4 |
| 20260506110048 | 48 | 0 | 0.0 | 0.0 | 0.00 | 0.00 | 0.00 | 94 | 1019.2 |
| 20260506104547 | 49 | 0 | 0.0 | 0.0 | 0.00 | 0.00 | 0.00 | 93 | 1019.0 |
| 20260506103043 | 49 | 0 | 0.0 | 0.0 | 0.00 | 0.00 | 0.00 | 93 | 1019.1 |
| 20260506101547 | 49 | 0 | 0.0 | 0.0 | 0.00 | 0.00 | 0.00 | 93 | 1018.9 |
| 20260506100050 | 49 | 0 | 0.0 | 0.0 | 0.00 | 0.00 | 0.00 | 93 | 1018.8 |
| 20260506094546 | 50 | 0 | 0.0 | 0.0 | 0.00 | 0.00 | 0.00 | 93 | 1018.7 |
| 20260506093049 | 50 | 0 | 0.0 | 0.0 | 0.00 | 0.00 | 0.00 | 93 | 1018.6 |
| 20260506091547 | 50 | 0 | 0.0 | 0.0 | 0.00 | 0.00 | 0.00 | 93 | 1018.6 |
| 20260506090048 | 50 | 0 | 0.0 | 0.0 | 0.00 | 0.00 | 0.00 | 92 | 1018.4 |
| 20260506084548 | 50 | 0 | 0.0 | 0.0 | 0.00 | 0.00 | 0.00 | 92 | 1018.4 |
| 20260506083045 | 51 | 0 | 0.0 | 0.0 | 0.00 | 0.00 | 0.00 | 92 | 1018.4 |
| 20260506081552 | 51 | 0 | 0.0 | 0.0 | 0.00 | 0.00 | 0.00 | 92 | 1018.4 |
| 20260506073048 | 52 | 0 | 0.0 | 0.0 | 0.00 | 0.00 | 0.00 | 91 | 1018.4 |
| 20260506071551 | 52 | 0 | 0.0 | 0.0 | 0.00 | 0.00 | 0.00 | 91 | 1018.3 |
| 20260506070105 | 52 | 0 | 0.0 | 0.0 | 0.00 | 0.00 | 0.00 | 91 | 1018.0 |
| 20260506061549 | 54 | 0 | 0.0 | 0.0 | 0.00 | 0.00 | 0.00 | 90 | 1017.8 |
| 20260506044558 | 57 | 0 | 0.0 | 0.0 | 0.00 | 0.00 | 0.00 | 86 | 1016.7 |
| 20260506043047 | 58 | 0 | 0.0 | 0.0 | 0.00 | 0.00 | 0.00 | 84 | 1016.6 |
| 20260506041548 | 59 | 0 | 0.0 | 0.0 | 0.00 | 0.00 | 0.00 | 83 | 1016.6 |